[[{"header":{"parameterUnit":"m.s-1","parameterCategory":1,"la1":30.2991,"la2":30.254,"lo1":-89.0895,"lo2":-89.0444,"dy":0.0017,"dx":0.0017,"nx":28,"ny":28,"refTime":"2024-04-10T03:00:00:Z","depth":0,"parameterNumber":2,"parameterNumberName":"U-component_of_WINDS"},"data":[0,0,0,0,0,0,0,0,0,0,0,0,0,0,0,0,0,0,0,0,0,0,0,0,0,0,0,0,0,0,0,0,0,0,0,0,0,0,0,0,0,0,0,0,0,0,0,0,0,0,0,0,0,0,0,0,0,0,-7.0937,-7.0939,0,-7.1069,-7.107,-7.1071,-7.1056,-7.1054,-7.1052,-7.105,-7.1181,-7.1186,-7.1192,0,0,0,0,0,0,0,0,0,0,0,0,0,-7.067,-7.0675,-7.0937,-7.0939,-7.094,-7.1068,-7.107,-7.1072,-7.1057,-7.1054,-7.1052,-7.1049,-7.1179,-7.1186,-7.1192,0,0,0,0,0,0,0,0,0,0,0,0,0,-7.0792,-7.0677,-7.0937,-7.0948,-7.0951,-7.1068,-7.107,-7.1072,-7.1057,-7.1054,-7.1051,-7.1048,-7.1177,-7.1185,-7.1193,-7.1306,0,0,-7.1218,-7.1221,0,0,0,0,0,0,0,0,-7.0785,-7.0802,-7.0945,-7.0948,-7.0951,-7.1043,-7.1024,-7.1151,-7.1058,-7.1017,-7.105,-7.1046,-7.1137,-7.1149,-7.118,-7.1312,-7.1318,-7.1219,-7.1224,-7.1227,-7.1229,0,0,0,0,0,0,0,-7.0777,-7.0796,-7.0989,-7.0947,-7.095,-7.0946,-7.096,-7.1048,-7.1093,-7.102,-7.1019,-7.1035,-7.1138,-7.1172,-7.1183,-7.132,-7.1218,-7.1226,-7.1231,-7.1234,-7.1551,-7.1554,0,0,0,0,0,0,-7.0766,-7.0789,-7.0985,-7.0993,-7.0859,-7.0953,-7.0969,-7.1016,-7.1092,-7.11,-7.1038,-7.1034,-7.116,-7.1173,-7.1187,-7.1323,-7.1227,-7.1235,-7.1239,-7.1547,-7.1551,-7.1555,0,0,0,0,0,0,-7.076,-7.0784,-7.0979,-7.0891,-7.0916,-7.0961,-7.1015,-7.1021,-7.1054,-7.1105,-7.1113,-7.1064,-7.1158,-7.1176,-7.1277,-7.1328,-7.1238,-7.1246,-7.1543,-7.1548,-7.1553,-7.1597,0,0,0,0,0,0,-7.0753,-7.0782,-7.0825,-7.0892,-7.092,-7.1067,-7.1018,-7.1025,-7.1069,-7.1065,-7.1132,-7.114,-7.1157,-7.1265,-7.1285,-7.1337,-7.1252,-7.1538,-7.1545,-7.1552,-7.1591,-7.1603,-7.1613,0,0,0,0,0,-7.0743,-7.0832,-7.0828,-7.0851,-7.0976,-7.107,-7.1086,-7.1105,-7.1073,-7.1117,-7.115,-7.1138,-7.132,-7.1275,-7.1298,-7.1353,-7.1535,-7.1543,-7.1551,-7.1586,-7.16,-7.1613,0,0,0,0,0,0,-7.0768,-7.0841,-7.0837,-7.095,-7.1004,-7.1068,-7.1123,-7.112,-7.1183,-7.1177,-7.1196,-7.1211,-7.1312,-7.1344,-7.1293,-7.1466,-7.1423,-7.1436,-7.1442,-7.1456,-7.1467,-7.1455,-7.1259,0,0,0,0,0,-7.0788,-7.0859,-7.0918,-7.1012,-7.104,-7.1077,-7.1119,-7.1129,-7.1185,-7.1207,-7.1247,-7.1302,-7.1371,-7.1416,-7.1482,-7.1597,-7.161,-7.1646,-7.1657,-7.1666,-7.1676,-7.1737,-7.1753,-7.1581,-7.1581,-7.1581,0,0,-7.0827,-7.0875,-7.0919,-7.1018,-7.1061,-7.1133,-7.1096,-7.1174,-7.1227,-7.1219,-7.1316,-7.1348,-7.141,-7.1517,-7.1567,-7.1546,-7.1727,-7.1676,-7.1683,-7.1688,-7.1747,-7.1763,-7.1777,-7.1587,-7.1586,-7.1585,0,0,-7.0934,-7.0979,-7.1062,-7.1106,-7.1173,-7.1198,-7.1218,-7.1282,-7.1303,-7.1402,-7.1397,-7.146,-7.158,-7.1623,-7.1661,-7.1788,-7.1778,-7.181,-7.1866,-7.1925,-7.1939,-7.1951,-7.1993,-7.2009,-7.182,-7.182,-7.182,0,-7.0974,-7.1083,-7.1104,-7.1183,-7.1226,-7.1225,-7.1307,-7.1349,-7.1434,-7.1463,-7.144,-7.159,-7.1631,-7.1748,-7.1779,-7.1811,-7.1833,-7.18,-7.1935,-7.1948,-7.1959,-7.2,-7.2016,-7.1823,-7.1823,-7.1822,-7.1822,0,-7.1128,-7.1204,-7.1263,-7.1345,-7.1396,-7.1476,-7.1508,-7.1557,-7.1563,-7.159,-7.169,-7.1741,-7.1817,-7.1846,-7.1853,-7.1965,-7.195,-7.1931,-7.1887,-7.1978,-7.2017,-7.2033,-7.1827,-7.1826,-7.1825,-7.1825,0,0,-7.1251,-7.1346,-7.1367,-7.1404,-7.1479,-7.1537,-7.1618,-7.1694,-7.1734,-7.1793,-7.186,-7.1962,-7.1945,-7.1989,-7.2,-7.2053,-7.2147,-7.2028,-7.203,-7.2046,-7.2271,-7.2282,-7.23,-7.2144,-7.2147,-7.2149,-7.2265,0,-7.1364,-7.1507,-7.1529,-7.1654,-7.1724,-7.1724,-7.1794,-7.1846,-7.1875,-7.1937,-7.1968,-7.2039,-7.2013,-7.2039,-7.2092,-7.2125,-7.2192,-7.2117,-7.2203,-7.2206,-7.2184,-7.2321,-7.2332,-7.2439,-7.2281,-7.2283,-7.2285,0,-7.1513,-7.1577,-7.171,-7.1774,-7.1804,-7.1867,-7.1938,-7.1999,-7.2059,-7.2075,-7.2125,-7.2131,-7.2213,-7.2169,-7.2282,-7.223,-7.2267,-7.2289,-7.2294,-7.2299,-7.2248,-7.2327,-7.2474,-7.2488,-7.231,-7.2308,-7.2306,0,-7.1586,-7.1706,-7.18,-7.1833,-7.1911,-7.1955,-7.199,-7.2047,-7.2091,-7.2154,-7.2182,-7.2254,-7.2292,-7.2347,-7.2371,-7.2337,-7.2482,-7.244,-7.2496,-7.2495,-7.2523,-7.252,-7.2674,-7.2553,-7.2553,-7.2552,-7.2552,0,-7.1707,-7.1788,-7.1834,-7.1892,-7.1982,-7.2007,-7.2095,-7.2128,-7.2179,-7.2242,-7.2248,-7.2307,-7.2338,-7.2401,-7.2422,-7.2511,-7.2529,-7.2543,-7.2546,-7.254,-7.2538,-7.2562,-7.2554,-7.2557,-7.2556,-7.2555,-7.2554,0,-7.1802,-7.1838,-7.194,-7.2007,-7.2026,-7.2088,-7.2145,-7.2201,-7.223,-7.231,-7.233,-7.2375,-7.245,-7.2481,-7.2573,-7.2587,-7.2688,-7.2688,-7.2668,-7.2668,-7.2721,-7.2714,-7.2893,-7.2917,-7.2783,-7.2784,-7.2785,0,-7.1876,-7.1938,-7.2012,-7.2055,-7.2091,-7.2161,-7.2207,-7.2235,-7.2282,-7.2355,-7.2401,-7.2477,-7.2538,-7.2659,-7.2699,-7.2769,-7.2768,-7.2827,-7.2779,-7.277,-7.2765,-7.276,-7.2765,-7.2834,-7.2835,-7.2836,-7.2837,0,-7.2001,-7.2016,-7.2081,-7.2154,-7.2209,-7.2267,-7.2323,-7.2358,-7.2395,-7.2448,-7.2525,-7.2573,-7.2668,-7.2742,-7.2815,-7.285,-7.2849,-7.2853,-7.2868,-7.2861,-7.2845,-7.2851,-7.2688,-7.2847,-7.2846,-7.2845,-7.2845,-7.2844,-7.2085,-7.214,-7.22,-7.2274,-7.232,-7.2373,-7.2428,-7.2465,-7.253,-7.261,-7.2623,-7.2705,-7.2763,-7.2862,-7.29,-7.2964,-7.2949,-7.2973,-7.2978,-7.2983,-7.2984,-7.2839,-7.2978,-7.2977,-7.2977,-7.2977,-7.2977,0,-7.2208,-7.2248,-7.2315,-7.2395,-7.2452,-7.245,-7.2512,-7.256,-7.2633,-7.2688,-7.2749,-7.2838,-7.291,-7.2957,-7.303,-7.3072,-7.3074,-7.309,-7.3085,-7.3093,-7.2995,-7.2972,-7.3088,-7.3088,-7.3088,-7.3088,-7.3088,-7.3088,-7.2279,-7.237,-7.2392,-7.2506,-7.2545,-7.2626,-7.2662,-7.2711,-7.2755,-7.2854,-7.2915,-7.2946,-7.2997,-7.3074,-7.314,-7.3152,-7.3177,-7.3194,-7.3205,-7.3112,-7.31,-7.3089,-7.3067,-7.3201,-7.3201,-7.3297,-7.3298,-7.3298]},{"header":{"parameterUnit":"m.s-1","parameterCategory":1,"la1":30.2991,"la2":30.254,"lo1":-89.0895,"lo2":-89.0444,"dy":0.0017,"dx":0.0017,"nx":28,"ny":28,"refTime":"2024-04-10T03:00:00:Z","depth":0,"parameterNumber":3,"parameterNumberName":"V-component_of_WINDS"},"data":[0,0,0,0,0,0,0,0,0,0,0,0,0,0,0,0,0,0,0,0,0,0,0,0,0,0,0,0,0,0,0,0,0,0,0,0,0,0,0,0,0,0,0,0,0,0,0,0,0,0,0,0,0,0,0,0,0,0,5.2817,5.2818,0,5.2922,5.2923,5.2925,5.2946,5.2945,5.2945,5.2944,5.3046,5.3049,5.3052,0,0,0,0,0,0,0,0,0,0,0,0,0,5.2631,5.2634,5.2817,5.2818,5.282,5.2922,5.2923,5.2925,5.2946,5.2945,5.2944,5.2944,5.3044,5.3049,5.3053,0,0,0,0,0,0,0,0,0,0,0,0,0,5.2721,5.2635,5.2817,5.2843,5.2846,5.2922,5.2923,5.2925,5.2947,5.2945,5.2944,5.2943,5.3043,5.3048,5.3053,5.3108,0,0,5.3069,5.3071,0,0,0,0,0,0,0,0,5.2716,5.2728,5.2838,5.2841,5.2845,5.292,5.2895,5.2986,5.2947,5.2908,5.2944,5.2943,5.3004,5.3013,5.3035,5.3113,5.3117,5.3069,5.3072,5.3075,5.3076,0,0,0,0,0,0,0,5.271,5.2724,5.2858,5.2839,5.2844,5.2848,5.286,5.2913,5.2961,5.2912,5.2913,5.2926,5.3006,5.303,5.3037,5.3119,5.3069,5.3074,5.3077,5.3079,5.325,5.3251,0,0,0,0,0,0,5.27,5.2718,5.2855,5.2862,5.2777,5.2852,5.2865,5.2897,5.2961,5.297,5.2927,5.2926,5.3021,5.3031,5.3041,5.3111,5.3075,5.3079,5.3082,5.3248,5.325,5.3252,0,0,0,0,0,0,5.2696,5.2712,5.2851,5.2791,5.2809,5.2857,5.2892,5.29,5.2923,5.2973,5.2981,5.2942,5.3021,5.3034,5.3092,5.3115,5.3082,5.3086,5.3247,5.3249,5.3251,5.325,0,0,0,0,0,0,5.269,5.271,5.2732,5.2791,5.2812,5.2901,5.2894,5.2903,5.2933,5.2934,5.2989,5.2997,5.3021,5.3084,5.3097,5.3121,5.309,5.3245,5.3248,5.325,5.3248,5.3252,5.3255,0,0,0,0,0,5.2684,5.2726,5.2733,5.275,5.2841,5.2903,5.2914,5.2943,5.2935,5.2957,5.2989,5.2995,5.311,5.309,5.3105,5.313,5.3243,5.3247,5.325,5.3247,5.3251,5.3255,0,0,0,0,0,0,5.2666,5.2734,5.2743,5.2806,5.2849,5.2906,5.2935,5.2946,5.299,5.2989,5.3021,5.3033,5.309,5.3116,5.3093,5.3188,5.3176,5.3183,5.3169,5.3174,5.3177,5.3169,5.3095,0,0,0,0,0,5.267,5.2716,5.2772,5.2822,5.2844,5.2886,5.2914,5.2933,5.2977,5.2995,5.3031,5.3072,5.3118,5.3147,5.3192,5.3253,5.3265,5.3278,5.3281,5.3284,5.3288,5.3324,5.333,5.3262,5.3262,5.3262,0,0,5.2677,5.272,5.2747,5.282,5.2855,5.2902,5.2901,5.2949,5.2983,5.3001,5.306,5.3088,5.3137,5.3197,5.3225,5.322,5.331,5.3288,5.329,5.3293,5.3328,5.3334,5.334,5.3265,5.3264,5.3264,0,0,5.2714,5.2752,5.2799,5.2835,5.289,5.2918,5.2929,5.2986,5.3006,5.3066,5.3081,5.3122,5.32,5.3235,5.3262,5.3316,5.3324,5.333,5.3347,5.3381,5.3387,5.3392,5.3411,5.3418,5.3335,5.3335,5.3335,0,5.2716,5.2788,5.282,5.287,5.2901,5.2923,5.2971,5.3004,5.3069,5.309,5.3085,5.3185,5.3219,5.3288,5.3302,5.3324,5.3337,5.3323,5.3384,5.3389,5.3394,5.3413,5.342,5.3335,5.3335,5.3335,5.3335,0,5.2788,5.2837,5.2868,5.2934,5.297,5.3017,5.3057,5.3089,5.3105,5.3134,5.3195,5.3237,5.3292,5.331,5.3325,5.3382,5.3378,5.3378,5.3366,5.34,5.3419,5.3426,5.3336,5.3335,5.3335,5.3335,0,0,5.2814,5.29,5.2911,5.2942,5.3006,5.3044,5.3093,5.3149,5.3176,5.3221,5.3263,5.333,5.3331,5.3363,5.3382,5.3412,5.3454,5.3409,5.3411,5.3416,5.352,5.352,5.3528,5.346,5.3462,5.3463,5.3516,0,5.2859,5.295,5.2982,5.3056,5.3102,5.3125,5.3168,5.3211,5.324,5.3283,5.3313,5.3361,5.3359,5.3378,5.3409,5.3442,5.3475,5.3439,5.3498,5.35,5.3485,5.3538,5.3537,5.3585,5.3524,5.3525,5.3526,0,5.2923,5.2973,5.3052,5.3112,5.3133,5.3171,5.3226,5.3267,5.3317,5.3335,5.3373,5.3391,5.3442,5.3429,5.3501,5.3475,5.3502,5.3522,5.3525,5.3531,5.3514,5.3545,5.3601,5.3608,5.3538,5.3537,5.3536,0,5.2935,5.3021,5.3081,5.3107,5.3178,5.3204,5.3235,5.3284,5.3316,5.3364,5.3385,5.3437,5.3465,5.3505,5.3537,5.3524,5.3606,5.3595,5.3622,5.3621,5.3637,5.3636,5.3698,5.3655,5.3655,5.3655,5.3654,0,5.2982,5.303,5.3088,5.3124,5.3178,5.3215,5.3267,5.3299,5.3343,5.3385,5.3407,5.3446,5.3486,5.353,5.3555,5.3611,5.3623,5.3639,5.3645,5.3637,5.3635,5.3654,5.3651,5.3657,5.3656,5.3656,5.3655,0,5.3004,5.3045,5.3111,5.3175,5.3192,5.3229,5.3283,5.3318,5.3349,5.3403,5.3417,5.3465,5.3518,5.3554,5.3621,5.3638,5.3699,5.3704,5.3683,5.3686,5.3711,5.3709,5.3788,5.3801,5.3749,5.3749,5.375,0,5.3031,5.3069,5.3138,5.3169,5.3201,5.325,5.3284,5.3322,5.3356,5.3418,5.3446,5.3501,5.3547,5.3631,5.3671,5.3723,5.373,5.3754,5.3737,5.3729,5.373,5.3728,5.3732,5.3756,5.3757,5.3757,5.3757,0,5.3075,5.3094,5.3144,5.3201,5.3242,5.3288,5.3334,5.3358,5.3404,5.3441,5.3498,5.3534,5.3605,5.3659,5.3716,5.3746,5.3759,5.3763,5.3772,5.3764,5.375,5.3758,5.369,5.376,5.376,5.376,5.376,5.3759,5.3101,5.3136,5.3191,5.3246,5.3285,5.3329,5.3366,5.3403,5.3452,5.3514,5.3533,5.3591,5.3641,5.3719,5.3751,5.3796,5.3794,5.3807,5.381,5.3813,5.3813,5.3743,5.3806,5.3806,5.3806,5.3806,5.3806,0,5.3146,5.3183,5.3234,5.3299,5.3343,5.3355,5.3407,5.3442,5.3494,5.3541,5.3587,5.3652,5.3706,5.3751,5.3807,5.3835,5.3842,5.3848,5.3846,5.3853,5.3812,5.3798,5.3841,5.3841,5.3841,5.3841,5.3841,5.3841,5.3175,5.3236,5.3262,5.3343,5.3379,5.3439,5.3468,5.3508,5.3546,5.3619,5.3665,5.3695,5.3741,5.3801,5.385,5.3862,5.3882,5.3886,5.3899,5.3859,5.3855,5.3852,5.3839,5.389,5.389,5.3937,5.3937,5.3937]}]]